Location: Erba
(45.8000°N, 9.2500°E)
Time: 05:23:02
(UTC+02:00)

ISS - Visible Passes

Search period start: 19 June 2024 00:00
Search period end: 29 June 2024 00:00
Orbit: 411 x 425 km, 51.6° (Epoch: 18 June)

Date Brightness Start Highest point End Pass type
(mag) Time Alt. Az. Time Alt. Az. Time Alt. Az.
22 Jun -1.3 04:35:47 10° SSE 04:37:34 14° SE 04:39:22 10° E visible
24 Jun -2.7 04:35:03 11° SSW 04:37:55 33° SE 04:40:59 10° ENE visible
25 Jun -2.0 03:48:44 17° SSE 03:49:58 21° SE 03:52:34 10° E visible
26 Jun -1.4 03:02:20 13° SE 03:02:20 13° SE 03:03:44 10° ESE visible
26 Jun -3.8 04:35:14 12° WSW 04:38:20 82° SSE 04:41:42 10° ENE visible
27 Jun -3.5 03:48:46 27° SSW 03:50:14 51° SE 03:53:30 10° ENE visible
28 Jun -2.8 03:02:13 32° SE 03:02:13 32° SE 03:05:10 10° ENE visible
28 Jun -3.0 04:35:34 10° W 04:38:49 50° NNW 04:42:06 10° ENE visible
